Regional Weather Roundup
Issued by NWS

Home | Current Version | Previous Version | Graphics & Text | Print | Product List | Glossary On
Versions: 1 2 3 4 5 6 7 8 9 10 11 12 13 14 15 16 17 18 19 20 21 22 23 24 25 26 27 28 29 30 31 32 33 34 35 36 37 38 39 40 41 42 43 44 45 46 47 48 49 50
000
ASUS43 KFSD 280910
RWRSD

WEATHER ROUNDUP FOR SOUTH DAKOTA
NATIONAL WEATHER SERVICE SIOUX FALLS SD
400 AM CDT SAT MAR 28 2015

NOTE: "FAIR" INDICATES FEW OR NO CLOUDS BELOW 12,000 FEET WITH NO
SIGNIFICANT WEATHER AND/OR OBSTRUCTIONS TO VISIBILITY.


SDZ001>005-009-010-012>017-281000-
NORTHWEST AND NORTH CENTRAL SOUTH DAKOTA

CITY           SKY/WX    TMP DP  RH WIND       PRES   REMARKS
BUFFALO          N/A     39  32  76 S7        29.86F
FAITH            N/A     36  31  82 S9        29.94F
MOBRIDGE       CLEAR     25  23  92 E8        29.96S WCI  16
$$

SDZ012>016-024>037-041>051-057-063-072>074-281000-
SOUTHWEST AND SOUTH CENTRAL SOUTH DAKOTA

CITY           SKY/WX    TMP DP  RH WIND       PRES   REMARKS
RAPID CTY ARPT PTCLDY    35  30  82 CALM      29.94F
PIERRE         CLEAR     25  23  92 NE5       29.98R WCI  19
CUSTER         CLEAR     40  25  55 W3        30.00F
ELLSWORTH AFB  PTCLDY    45  33  63 S5        29.94F
PHILIP         CLEAR     30  26  85 CALM      29.96S
PINE RIDGE     PTCLDY    31  27  85 CALM      29.96F
SPEARFISH      FAIR      41  32  70 CALM      29.94F
WINNER         CLOUDY    36  29  75 E5        29.98S
$$

SDZ004>011-016>023-039-040-281000-
NORTHEAST SOUTH DAKOTA

CITY           SKY/WX    TMP DP  RH WIND       PRES   REMARKS
ABERDEEN       CLOUDY    32  26  78 S7        30.06S WCI  26
WATERTOWN      CLOUDY    28  23  81 S13       30.06R WCI  17
SISSETON         N/A     29  25  85 S8        30.09S WCI  21
$$

SDZ017-020-022-023-036>040-048>070-281000-
SOUTHEAST SOUTH DAKOTA

CITY           SKY/WX    TMP DP  RH WIND       PRES   REMARKS
SIOUX FALLS    CLOUDY    30  24  78 SE14      30.08S WCI  19
HURON          PTCLDY    25  22  88 E7        30.06R WCI  17
CHAMBERLAIN    PTCLDY    26  24  94 CALM      30.00S
MITCHELL       CLEAR     27  23  85 SE7       30.06R WCI  19
YANKTON        CLEAR     27  21  80 E6        30.07S WCI  20
$$

ABBREVIATIONS USED IN REMARKS
   TC - TEMPERATURE IN CELSIUS
  WCI - WIND CHILL INDEX
   HX - HEAT INDEX
  VSB - VISIBILITY



USA.gov is the U.S. government's official web portal to all federal, state and local government web resources and services.